Manchester, NH

4:11 PM EDT on March 24, 2017 (GMT -0400)
Manchester

Weather History for KMHT - September, 2012

Change the Weather History Date:

Sunday, September 9, 2012

  Actual Average Record
Temperature  
Mean Temperature 67 °F 65 °F  
Max Temperature 75 °F 75 °F 95 °F (2002)
Min Temperature 59 °F 55 °F 33 °F (1996)
Degree Days  
Heating Degree Days 0 2  
Month to date heating degree days 13  
Since 1 July heating degree days 31  
Cooling Degree Days 2 2  
Month to date cooling degree days 29  
Year to date cooling degree days 615  
Growing Degree Days 17 (Base 50)    
Moisture  
Dew Point 54 °F    
Average Humidity 69    
Maximum Humidity 90    
Minimum Humidity 41    
Precipitation  
Precipitation 0.01 in 0.11 in 1.83 in (1969)
Month to date precipitation 1.04  
Year to date precipitation 30.30  
Snow  
Snow 0.00 in - - ()
Month to date snowfall  
Since 1 July snowfall  
Snow Depth -    
Sea Level Pressure  
Sea Level Pressure 29.82 in    
Wind  
Wind Speed 4 mph (NW)    
Max Wind Speed 8 mph    
Max Gust Speed -    
Visibility 10 miles    
Events Rain    
T = Trace of Precipitation, MM = Missing Value Source: NWS Daily Summary

Daily Weather History Graph

Daily Weather History Graph

Search for Another Location

Airport or City:

Trip Planner

Search our weather history database for the weather conditions in past years. The results will help you decide how hot, cold, wet, or windy it might be!

Date:

Astronomy

Sep. 09, 2012 Rise Set
Actual Time 6:19 AM EDT 7:05 PM EDT
Civil Twilight 5:50 AM EDT 7:34 PM EDT
Nautical Twilight 5:16 AM EDT 8:08 PM EDT
Astronomical Twilight 4:41 AM EDT 8:43 PM EDT
Moon No Moon Rise 2:55 PM EDT (9/9)
Length of Visible Light 13h 43m
Length of Day
12h 46m
Last Quarter, 39% of the Moon is Illuminated
Sep 9
Last Quarter
Sep 15
New
Sep 22
First Quarter
Sep 29
Full
Oct 8
Last Quarter

Hourly Weather History & Observations

Time (EDT) Temp. Dew Point Humidity Pressure Visibility Wind Dir Wind Speed Gust Speed Precip Events Conditions
12:53 AM 63.0 °F 60.1 °F 90% 29.73 in 10.0 mi SW 3.5 mph - N/A   Overcast
1:53 AM 63.0 °F 59.0 °F 87% 29.73 in 10.0 mi SW 3.5 mph - N/A   Overcast
2:53 AM 63.0 °F 57.9 °F 84% 29.75 in 10.0 mi Calm Calm - 0.00 in Rain Light Rain
3:53 AM 62.1 °F 57.9 °F 86% 29.75 in 10.0 mi Calm Calm - 0.01 in Rain Light Rain
4:53 AM 62.1 °F 57.9 °F 86% 29.77 in 10.0 mi SW 3.5 mph - 0.00 in   Clear
5:53 AM 61.0 °F 57.0 °F 87% 29.78 in 10.0 mi West 3.5 mph - N/A   Clear
6:53 AM 61.0 °F 55.9 °F 83% 29.82 in 10.0 mi Calm Calm - N/A   Clear
7:53 AM 61.0 °F 55.0 °F 81% 29.84 in 10.0 mi NW 3.5 mph - N/A   Clear
8:53 AM 61.0 °F 54.0 °F 78% 29.85 in 10.0 mi NW 6.9 mph - N/A   Clear
9:53 AM 62.1 °F 52.0 °F 70% 29.86 in 10.0 mi NNW 6.9 mph - N/A   Clear
10:53 AM 63.0 °F 52.0 °F 67% 29.87 in 10.0 mi NW 8.1 mph - N/A   Clear
11:53 AM 64.9 °F 54.0 °F 68% 29.87 in 10.0 mi West 4.6 mph - N/A   Clear
12:53 PM 68.0 °F 52.0 °F 56% 29.87 in 10.0 mi Variable 4.6 mph - N/A   Clear
1:53 PM 70.0 °F 51.1 °F 51% 29.84 in 10.0 mi Variable 4.6 mph - N/A   Clear
2:53 PM 72.0 °F 52.0 °F 49% 29.82 in 10.0 mi Variable 3.5 mph - N/A   Clear
3:53 PM 73.0 °F 52.0 °F 48% 29.81 in 10.0 mi Variable 5.8 mph - N/A   Partly Cloudy
4:53 PM 73.9 °F 48.9 °F 41% 29.81 in 10.0 mi NW 6.9 mph - N/A   Scattered Clouds
5:53 PM 73.9 °F 48.9 °F 41% 29.82 in 10.0 mi NNW 6.9 mph - N/A   Partly Cloudy
6:53 PM 72.0 °F 48.9 °F 44% 29.83 in 10.0 mi North 6.9 mph - N/A   Partly Cloudy
7:53 PM 68.0 °F 52.0 °F 56% 29.85 in 10.0 mi North 4.6 mph - N/A   Clear
8:53 PM 64.9 °F 55.0 °F 70% 29.86 in 10.0 mi Calm Calm - N/A   Clear
9:53 PM 62.1 °F 54.0 °F 75% 29.88 in 10.0 mi North 4.6 mph - N/A   Clear
10:53 PM 61.0 °F 54.0 °F 78% 29.88 in 10.0 mi Calm Calm - N/A   Clear
11:53 PM 59.0 °F 53.1 °F 81% 29.88 in 10.0 mi North 5.8 mph - N/A   Clear